Regional Weather Roundup
Issued by NWS

Home | Current Version | Previous Version | Graphics & Text | Print | Product List | Glossary On
Versions: 1 2 3 4 5 6 7 8 9 10 11 12 13 14 15 16 17 18 19 20 21 22 23 24 25 26 27 28 29 30 31 32 33 34 35 36 37 38 39 40 41 42 43 44 45 46 47 48 49 50
000
ASUS45 KSLC 211610
RWRUT

UTAH REGIONAL WEATHER ROUNDUP
NATIONAL WEATHER SERVICE SALT LAKE CITY UT
1000 AM MDT MON JUL 21 2014

UTZ001>011-023>025-211700-

NORTHERN UTAH

CITY           SKY/WX    TMP DP  RH WIND       PRES   REMARKS
HILL AFB       SUNNY     80  40  24 S8        30.13S
LOGAN          SUNNY     78  53  41 VRB3      30.09S
OGDEN          SUNNY     82  39  21 S5        30.11R
PROVO AIRPORT  SUNNY     81  37  21 CALM      30.16S
SALT LAKE CITY MOSUNNY   84  35  17 S20G28    30.08R
VERNAL         SUNNY     73  32  22 E5        30.21R
WENDOVER       SUNNY     79  46  31 NE5       30.09S
HEBER CITY     SUNNY     77  36  22 SW12G17   30.21S
WEST JORDAN    SUNNY     84  48  28 SE21      30.13R

$$

UTZ012>022-026-027-211700-

SOUTHERN UTAH

CITY           SKY/WX    TMP DP  RH WIND       PRES   REMARKS
BRYCE CANYON   SUNNY     70  33  25 SW13      30.41S
CEDAR CITY     SUNNY     78  34  20 SW17G28   30.25R
MILFORD        SUNNY     79  39  23 SW9       30.20S
MOAB/CYNLANDS  SUNNY     87  33  14 W10       30.14S
PRICE          SUNNY     78  38  23 SE5       30.24S
ST GEORGE      SUNNY     88  43  20 SE6       30.10S
KANAB            N/A     77  36  22 SE6       30.28S

$$

REGIONAL REPORTS     COLORADO/ARIZONA

CITY           SKY/WX    TMP DP  RH WIND       PRES   REMARKS
CRAIG, CO      SUNNY     73  50  44 N5        30.26S
GRAND JUNCTION MOSUNNY   79  46  31 SE9       30.19R
RIFLE          MOSUNNY   73  47  39 E3        30.24F
MONTROSE       PTSUNNY   74  50  42 N7        30.27S
CORTEZ         SUNNY     79  35  20 S6        30.30S
PAGE, AZ       SUNNY     85  33  15 NE7       30.19R
GRAND CANYON   SUNNY     74  35  24 SW13      30.38R
KINGMAN        SUNNY     84  40  21 SW5       30.14S
FLAGSTAFF      SUNNY     73  38  27 W13G28    30.40S

$$

REGIONAL REPORTS    NEVADA/IDAHO/WYOMING

CITY           SKY/WX    TMP DP  RH WIND       PRES   REMARKS
LAS VEGAS, NV  SUNNY     90  44  20 S14       29.98S
ELY            SUNNY     76  35  22 SE12      30.23S
ELKO           SUNNY     69  50  50 SW8       30.17R
POCATELLO, ID  MOSUNNY   77  49  37 W20       30.11R
BURLEY         SUNNY     74  54  49 W9        30.08R
EVANSTON, WY   MOSUNNY   68  43  40 SW15      30.30R
ROCK SPRINGS   SUNNY     75  40  28 W9        30.26R

$$


USA.gov is the U.S. government's official web portal to all federal, state and local government web resources and services.